Theta_e
312 313 314 314 315 303 309 310 305 308 314 310 306 306 306 305 303 300 308 307 309 314 314 316 321 325 327 331 332 331 333 332 335 336 338 340 341 341 342 342 343 345 345 347 347 349 348 349 352 352 354 356 359 359 360 364 366 367 367 366 364 366 365
312 315 315 315 315 314 311 305 309 314 315 313 307 300 304 301 297 302 307 302 304 305 302 316 318 317 321 328 329 328 334 335 334 336 339 341 342 342 344 344 347 347 347 348 347 347 348 350 352 353 355 356 360 360 360 362 363 363 365 365 363 363 363
311 314 313 312 315 316 311 309 316 308 303 301 307 304 297 297 296 299 302 304 305 306 308 312 312 313 315 328 334 330 331 333 335 337 339 342 344 344 344 344 346 347 348 348 349 348 347 351 352 353 355 357 360 360 361 363 364 365 364 363 362 361 361
311 311 310 303 307 313 314 313 310 314 310 306 304 305 305 303 297 298 299 303 301 309 310 312 312 315 317 325 329 330 330 332 334 337 339 342 343 345 344 344 344 346 348 349 350 351 349 350 351 352 356 358 359 361 362 366 365 363 363 361 362 362 362
309 304 308 306 308 306 307 307 307 309 308 312 310 308 305 302 300 299 299 297 303 312 315 313 315 317 321 325 329 333 333 332 334 337 340 343 344 345 346 344 346 346 347 347 348 351 352 353 354 356 357 358 358 361 361 363 363 361 359 361 361 363 364
304 306 311 311 311 311 309 308 307 308 306 304 301 300 308 305 302 297 298 298 306 312 316 321 318 330 330 335 331 331 333 333 338 340 343 346 346 347 347 346 346 346 348 348 347 350 352 353 354 355 356 359 359 360 360 362 363 361 359 360 361 364 364
305 309 312 313 312 312 311 311 309 311 309 308 304 296 302 306 305 306 305 301 305 316 318 321 325 332 332 333 332 332 335 339 341 342 344 348 348 347 346 347 347 348 349 349 349 352 354 354 355 356 358 359 359 362 362 361 362 361 361 362 364 365 362
310 311 312 313 313 311 309 310 311 310 308 309 307 306 308 305 305 303 302 300 305 318 331 330 334 335 334 337 338 336 337 340 344 346 346 347 348 348 348 350 350 351 350 351 353 353 355 354 356 357 358 360 359 361 362 362 361 361 362 364 364 363 361
303 305 309 309 312 310 308 307 310 311 311 310 310 310 311 304 305 305 302 298 304 324 327 331 333 330 329 333 340 338 335 338 342 347 350 350 350 349 349 350 351 352 351 351 354 354 355 355 357 358 359 360 360 362 362 361 361 363 363 363 363 363 362
294 294 296 299 302 305 308 310 309 311 310 310 308 304 307 300 307 307 303 303 310 317 329 328 328 329 332 334 338 341 338 341 342 344 346 349 350 353 354 353 353 351 353 354 355 354 355 356 358 358 361 361 361 363 362 363 361 363 362 362 363 362 361
302 304 306 310 310 308 304 307 308 309 310 311 310 308 305 302 306 306 309 307 308 310 322 323 326 328 329 333 335 338 338 344 347 349 349 350 352 353 353 355 356 356 355 354 355 356 357 357 358 360 361 361 362 363 363 363 363 364 363 362 362 361 360
308 308 308 310 311 307 308 307 307 308 308 309 308 305 304 311 306 302 311 312 307 309 312 322 323 324 328 331 334 338 343 345 346 348 350 350 352 354 354 354 353 354 354 355 355 355 356 357 359 360 360 361 361 362 362 363 363 361 360 361 361 359 356
310 310 310 311 310 309 309 308 308 308 308 308 306 307 309 309 305 303 309 313 310 311 312 314 320 323 326 330 335 339 343 347 348 347 347 347 349 351 352 354 354 353 354 354 354 355 356 357 357 358 359 360 361 362 362 360 360 358 359 359 358 357 355
310 310 310 311 309 308 308 308 309 309 308 307 308 308 310 310 310 310 309 316 312 313 313 318 324 322 325 332 341 344 344 343 346 345 345 346 348 349 348 351 353 354 354 355 356 357 357 356 357 357 357 358 359 358 357 355 357 359 360 358 356 356 356
307 309 310 310 309 308 307 309 309 309 309 309 309 309 310 311 309 310 310 311 312 321 328 331 329 331 332 340 337 336 342 344 344 343 344 348 349 349 352 352 352 353 354 356 356 357 357 357 358 357 356 355 355 356 356 357 358 360 359 357 356 355 357
305 309 308 309 309 309 308 308 309 308 308 306 307 307 310 309 308 310 310 310 310 328 332 331 334 333 333 332 334 339 342 343 344 343 345 347 348 349 351 352 353 353 354 355 356 357 358 358 357 356 355 356 355 356 357 357 357 358 357 357 356 356 354
303 308 309 308 308 307 304 307 312 315 313 310 310 311 312 311 312 309 307 308 322 325 327 329 329 331 332 331 334 338 340 345 344 344 344 344 344 347 350 351 352 352 354 356 357 357 358 358 356 355 357 355 355 355 355 356 357 356 355 355 356 357 357
304 307 308 309 304 297 301 316 318 318 315 313 308 308 309 316 315 312 319 322 325 327 324 324 328 329 333 335 340 341 344 345 343 343 343 343 343 345 347 350 353 354 355 355 357 358 358 358 358 358 357 356 356 357 357 358 357 356 356 355 357 357 358
303 307 308 304 299 299 314 321 319 320 321 321 316 319 321 322 322 319 317 319 326 329 326 325 332 335 337 341 343 343 344 347 345 343 343 343 344 345 347 350 352 355 356 356 357 357 358 357 356 356 356 357 357 357 357 357 357 356 356 357 358 359 358
308 305 304 295 299 314 319 319 322 324 322 320 319 318 322 325 325 326 324 328 330 332 329 328 333 336 336 339 342 347 350 344 341 339 341 344 344 345 348 350 353 354 354 355 356 357 359 358 356 356 355 356 355 354 357 355 355 356 357 358 357 357 356
302 303 307 304 310 310 315 317 319 321 318 319 320 313 317 326 328 329 328 329 331 332 331 330 332 336 337 337 338 343 347 342 337 337 340 342 343 345 348 350 351 353 355 356 358 358 358 359 357 355 355 355 355 354 355 355 355 355 356 353 352 355 351
309 304 301 301 304 302 310 319 324 327 327 325 325 322 317 328 329 330 329 329 329 331 332 331 335 336 332 326 331 340 344 341 336 338 341 343 346 346 348 351 352 353 354 355 356 355 357 358 358 357 358 356 355 354 354 354 354 354 354 350 352 352 353
307 304 301 301 300 305 316 318 323 326 327 326 326 321 315 326 329 331 330 329 330 330 330 331 334 333 325 324 331 341 340 339 339 340 341 343 345 348 350 350 351 351 353 354 354 357 357 357 358 358 357 356 354 354 354 354 355 354 354 356 356 356 356
307 306 301 300 305 307 317 322 324 326 326 326 323 309 310 326 328 331 331 329 330 330 331 335 333 331 319 324 331 339 339 338 339 340 340 343 344 345 347 350 353 356 358 356 355 355 357 359 360 358 358 356 356 355 354 355 355 356 356 355 356 356 356
305 305 303 304 307 319 320 322 325 326 327 321 309 302 319 327 329 331 331 331 332 331 331 335 330 334 332 334 345 342 340 339 340 342 345 345 345 346 349 352 355 354 354 354 355 356 357 358 358 358 356 356 355 356 355 355 354 356 357 356 355 354 355
305 306 303 303 311 319 322 324 326 326 323 311 312 322 329 329 329 331 332 332 333 332 333 335 336 335 336 336 347 344 341 341 344 345 345 345 346 350 354 354 352 352 353 356 357 355 357 358 357 358 357 356 356 355 353 352 355 358 358 356 356 355 355
306 307 303 300 295 317 324 323 325 325 319 316 324 326 329 331 331 332 333 333 334 333 334 333 333 333 336 338 344 343 345 347 346 346 347 348 348 349 351 352 353 353 354 354 354 356 355 355 355 355 357 355 354 354 353 356 357 358 358 357 358 356 355
303 304 300 299 313 320 324 322 316 321 323 326 328 328 327 332 332 333 333 335 335 334 334 334 336 334 334 337 343 344 345 346 349 350 350 350 350 348 349 350 349 351 353 356 357 358 356 357 358 358 358 356 356 354 355 358 358 358 357 356 357 355 355
310 308 310 316 323 323 325 324 324 325 329 330 330 330 330 330 332 335 334 334 336 336 335 335 336 335 334 338 341 343 343 345 347 348 347 346 346 346 347 347 351 352 354 356 356 356 357 358 359 360 359 357 355 355 357 359 359 358 356 354 353 353 352
318 318 319 321 322 323 323 326 327 326 328 331 331 331 330 332 333 336 335 336 337 336 336 334 336 338 340 337 339 341 344 346 347 348 347 346 347 347 350 352 354 358 358 358 357 355 357 359 358 360 357 355 355 356 358 360 359 357 356 355 354 353 352
309 303 320 319 318 322 324 325 327 328 328 329 331 331 332 334 335 336 337 338 338 336 337 336 336 338 340 340 344 347 349 351 350 348 348 347 347 348 350 357 357 355 352 350 350 352 352 354 355 355 356 353 356 357 358 355 356 358 357 355 354 352 351
312 314 320 320 322 322 324 326 324 325 326 328 329 331 334 336 336 337 337 338 338 336 335 336 336 335 337 338 343 346 349 350 351 350 349 349 348 352 356 356 353 351 349 348 348 350 352 353 353 352 353 352 353 353 351 351 354 355 354 353 350 349 346
317 316 319 320 323 324 325 326 327 328 328 327 329 332 334 335 336 337 338 339 338 337 336 339 338 336 337 339 342 342 347 351 351 351 352 355 356 355 353 354 352 351 350 350 353 352 352 354 355 355 354 352 352 353 353 355 356 353 351 351 350 346 346
311 311 313 318 314 313 320 324 326 328 329 329 329 331 332 333 334 336 336 337 339 340 340 341 338 337 339 340 344 343 348 351 353 355 356 355 353 354 354 354 354 354 354 354 354 353 354 355 354 355 356 355 355 353 355 356 356 354 353 351 350 347 347
307 313 316 320 321 321 323 324 327 329 329 330 330 329 330 332 335 336 336 336 338 341 344 343 342 340 341 344 346 347 349 352 354 356 355 354 354 353 354 354 354 354 355 356 354 354 353 354 354 354 354 354 356 356 358 357 356 357 356 352 350 349 349
317 317 319 322 321 320 322 325 328 329 331 330 329 332 333 333 335 336 336 336 336 339 345 344 345 345 344 345 346 348 349 351 354 354 355 354 353 352 353 354 355 355 355 354 354 353 354 353 353 353 352 354 356 354 356 357 358 358 356 353 350 349 349
317 322 322 323 325 325 326 328 330 331 330 329 328 332 332 332 335 337 337 337 338 340 341 341 343 345 346 347 347 348 349 350 352 353 352 351 351 352 354 354 353 354 355 355 354 354 353 352 352 352 353 352 353 352 355 355 355 356 355 354 352 351 351
Wind_Speed
10 13 13 14 11 10 6 6 10 9 4 6 7 7 6 7 7 10 5 7 9 6 7 3 2 4 3 4 3 5 6 7 8 7 8 9 10 12 13 13 13 15 14 14 13 13 13 12 12 13 14 14 15 14 14 14 13 11 12 12 11 11 11
12 10 10 14 17 13 4 10 10 6 3 7 7 7 4 7 8 4 2 7 7 5 3 2 5 7 3 3 3 5 8 9 9 7 7 8 10 11 12 13 13 14 14 15 14 13 13 13 14 15 16 15 14 12 11 12 12 11 10 10 10 10 11
7 6 6 9 11 11 10 5 2 9 8 11 9 6 9 7 8 6 7 6 7 7 4 7 5 4 1 5 4 6 8 8 7 8 8 8 9 9 10 11 11 11 12 13 13 13 14 14 14 15 15 13 11 12 13 13 13 11 11 9 10 9 10
7 8 9 11 11 11 11 4 8 4 5 7 7 8 8 7 7 7 5 6 6 5 3 4 3 3 3 4 5 6 7 7 6 6 8 8 8 8 9 9 10 11 12 13 13 13 13 13 14 13 13 11 13 13 13 11 14 14 12 12 11 10 9
4 9 9 12 10 12 12 11 11 8 8 2 6 3 6 6 7 6 5 6 6 2 1 4 2 3 6 3 6 6 5 5 7 7 7 7 7 7 8 9 9 10 11 12 12 11 11 11 11 11 11 13 13 13 13 14 15 14 13 12 11 10 9
8 9 13 15 14 13 13 11 12 11 11 11 11 11 7 8 7 4 6 7 4 4 1 3 2 5 4 3 6 7 7 7 8 8 8 7 6 6 7 7 8 8 9 10 11 10 9 10 10 11 11 11 13 13 12 13 12 11 12 13 12 11 10
8 9 7 1 3 6 7 7 13 14 13 11 10 9 8 8 9 6 6 8 3 5 2 2 4 4 4 3 5 8 8 9 8 8 9 7 6 6 7 7 7 6 7 8 8 10 10 10 10 11 11 11 11 11 11 12 12 12 12 11 10 8 7
9 4 5 6 4 7 8 8 9 7 10 10 10 9 7 7 6 8 7 9 4 4 2 3 6 4 4 3 4 9 8 8 8 8 8 7 6 6 6 6 6 5 6 6 6 8 9 9 10 11 10 10 11 10 11 11 13 12 11 10 9 9 8
9 10 8 9 5 7 8 8 10 12 11 9 11 10 5 9 9 10 8 8 4 4 3 1 4 6 8 9 6 7 9 8 8 8 7 6 6 6 7 7 7 6 6 7 7 8 8 9 9 10 10 10 10 11 11 11 11 12 12 10 9 9 9
12 12 11 11 11 11 9 12 13 13 15 15 11 11 8 9 7 9 9 7 4 7 7 4 5 8 9 9 8 6 8 8 9 8 8 7 6 6 7 7 7 7 6 6 6 7 8 8 9 9 9 10 10 10 10 10 11 12 11 9 8 8 8
7 5 2 6 5 11 12 14 14 11 12 14 13 9 10 11 8 9 10 9 6 6 7 1 4 6 10 11 9 9 9 9 9 9 8 7 7 7 7 7 7 6 6 7 6 7 7 7 8 8 9 9 9 9 10 10 10 9 9 9 8 8 8
13 15 13 8 8 6 11 9 11 11 12 12 14 12 11 8 8 10 7 11 10 9 7 8 4 5 9 10 10 10 9 8 9 10 10 9 8 7 7 7 8 7 7 6 6 6 6 6 7 7 7 8 8 9 9 9 9 9 8 8 9 9 9
12 14 13 10 10 11 8 9 8 7 8 11 14 15 14 12 10 8 9 10 11 10 10 5 3 3 6 11 11 10 10 9 10 11 11 10 9 9 9 8 7 7 7 6 7 7 6 7 7 7 7 7 7 7 8 9 8 9 8 9 11 10 10
12 12 12 11 13 12 12 11 11 10 7 9 13 15 14 12 12 11 9 6 10 10 4 3 3 1 4 10 9 10 11 11 11 12 11 10 9 9 10 9 8 7 7 7 7 7 7 8 8 8 7 7 7 7 7 7 8 8 9 9 10 10 9
10 5 7 10 12 13 13 13 10 10 9 8 11 13 13 13 11 10 8 9 8 4 4 3 1 2 5 10 12 12 11 11 12 12 11 10 10 10 9 9 8 8 7 7 7 7 7 7 8 7 6 7 6 6 6 7 7 7 8 8 9 10 9
8 7 5 10 11 13 14 10 8 9 10 11 10 12 11 11 12 12 11 10 7 5 4 5 4 5 8 12 13 12 10 11 12 12 12 11 10 10 9 9 8 8 7 7 7 7 7 7 7 7 7 6 6 6 6 6 5 6 6 7 7 8 7
8 8 7 7 12 11 13 9 3 2 4 7 6 6 4 7 5 10 10 5 6 3 2 1 3 6 10 12 13 12 12 11 12 12 12 11 11 10 10 9 9 8 7 7 7 7 7 7 7 7 7 6 6 6 6 6 6 6 5 5 6 6 7
5 7 10 11 11 12 5 5 2 4 2 4 7 6 5 2 5 4 5 5 4 4 4 4 1 5 6 9 9 10 11 11 11 12 12 11 11 11 9 9 8 8 7 7 7 7 7 8 8 7 6 6 6 7 6 7 7 6 5 5 4 5 5
7 6 8 10 9 7 4 4 3 2 5 4 4 6 4 4 2 5 7 6 6 6 6 5 4 2 3 5 9 8 9 10 12 13 13 11 11 10 10 9 9 8 8 8 8 8 8 8 8 7 7 6 7 7 7 7 7 6 5 4 4 4 3
5 9 5 9 4 7 10 9 8 5 3 3 3 8 8 8 7 6 3 6 7 7 7 4 1 1 2 5 7 7 7 10 13 13 12 12 11 11 9 10 9 9 9 8 8 8 8 8 7 7 7 7 6 6 5 6 5 4 4 4 3 3 3
3 6 8 3 7 10 4 2 8 8 5 5 4 2 8 8 8 8 7 8 8 9 7 3 1 2 5 7 6 6 7 10 12 13 13 12 11 10 11 11 11 10 10 9 9 9 8 7 7 7 7 7 7 7 6 5 5 5 4 4 3 3 5
2 4 6 7 4 4 3 8 8 7 6 6 6 4 9 9 11 11 10 10 10 10 7 3 1 4 7 9 8 8 9 10 13 12 12 12 11 12 12 12 11 11 10 10 9 9 9 9 8 8 8 7 7 7 6 6 5 5 5 6 5 4 5
3 7 7 1 5 4 4 9 11 10 7 5 3 6 5 9 13 13 12 11 11 9 8 2 2 5 5 6 8 10 13 12 13 13 13 13 12 12 12 13 12 12 10 10 11 10 10 10 9 8 9 9 8 7 6 6 6 6 5 5 5 5 5
4 2 6 4 3 2 7 11 11 11 7 2 5 7 5 11 15 13 13 13 12 11 7 4 4 3 5 8 8 12 14 13 13 14 14 14 13 13 13 12 12 12 11 11 10 10 10 10 9 8 8 8 7 7 7 6 6 5 5 5 4 3 3
5 5 3 3 2 5 12 14 13 10 9 5 6 2 6 13 14 13 13 12 12 10 5 3 2 5 5 4 3 13 14 13 13 13 13 13 13 14 14 14 14 12 10 10 10 10 9 9 8 7 7 7 7 6 6 6 6 7 7 6 5 5 5
7 6 5 5 4 4 12 13 7 13 9 2 4 5 9 11 12 12 12 12 11 10 5 4 4 5 6 1 3 12 13 14 13 13 14 14 13 13 14 14 12 11 10 11 11 11 9 9 8 7 7 7 7 7 6 6 8 8 8 8 8 8 8
4 5 6 3 5 6 15 15 4 16 6 5 7 11 11 9 11 11 11 10 10 10 8 7 4 5 7 2 6 12 13 14 15 15 15 14 14 14 14 13 12 12 11 11 11 10 9 9 8 7 7 8 7 6 6 9 9 9 9 9 10 9 9
4 6 8 1 4 7 10 11 7 7 6 6 9 10 10 10 9 10 9 8 10 9 9 11 10 7 5 3 3 10 13 14 14 15 14 14 14 14 13 14 13 13 11 11 10 9 8 7 6 6 7 7 7 7 9 7 8 8 8 8 8 9 8
3 2 4 3 4 6 6 8 6 6 7 8 10 10 10 10 9 11 9 10 11 11 11 11 10 6 4 3 2 6 13 14 15 15 16 15 14 14 13 14 13 12 12 13 11 10 8 8 6 5 5 7 8 8 7 6 7 8 7 7 7 7 7
5 1 2 2 3 6 6 6 5 6 9 10 10 11 10 9 10 9 10 11 11 10 10 11 9 8 8 4 3 5 9 13 14 15 15 15 14 14 14 13 12 12 12 13 12 11 9 8 7 6 7 8 9 8 6 6 6 7 7 7 6 6 6
4 1 1 3 5 4 3 6 6 7 8 11 11 10 10 11 10 10 10 10 10 9 8 8 9 9 9 0 2 6 8 11 14 15 15 15 14 14 14 13 13 12 12 12 12 12 11 9 8 7 7 8 8 7 6 6 7 7 7 7 6 5 5
6 1 3 5 4 2 2 5 8 10 11 12 12 10 11 11 10 10 11 11 10 8 7 8 9 8 7 1 7 7 8 10 12 13 14 14 13 12 13 13 12 11 10 11 12 11 10 8 7 8 7 8 7 6 7 8 7 6 6 4 5 5 5
5 2 2 8 3 3 3 5 9 9 9 11 13 12 12 12 12 13 13 12 11 10 8 8 6 7 4 2 5 10 9 9 10 12 13 13 13 13 14 12 11 10 10 11 12 12 10 8 8 8 8 8 8 8 7 7 6 6 6 6 4 5 4
1 2 4 9 3 2 5 7 10 10 9 10 12 12 12 13 15 15 16 15 13 11 8 8 6 6 4 3 3 8 9 9 11 13 13 13 14 14 13 12 12 12 12 12 12 11 9 8 9 9 9 8 7 8 7 6 5 6 5 4 5 4 4
4 6 7 4 5 5 4 7 8 8 7 8 11 13 12 12 12 14 14 15 15 12 10 9 8 6 3 4 4 6 8 8 10 11 14 14 13 13 13 14 14 13 13 13 13 11 10 9 9 9 8 8 7 7 6 5 5 5 4 4 3 3 2
8 11 7 6 6 6 5 6 7 6 7 8 9 10 10 11 12 13 13 12 13 12 10 9 10 8 6 6 6 8 8 8 10 11 12 13 14 14 13 13 14 15 14 13 12 11 9 9 8 8 8 7 6 6 6 5 4 4 4 3 3 3 3
5 6 8 9 8 7 5 5 4 3 5 6 8 11 11 11 11 12 11 10 8 10 9 9 10 9 8 8 8 9 8 8 8 10 11 11 12 13 14 16 15 14 12 10 10 10 10 9 9 8 8 7 6 6 5 4 3 3 3 3 3 3 3
Wind_Direction
208 206 205 211 223 225 167 203 216 225 234 258 263 250 259 277 253 261 229 227 245 238 241 280 300 267 238 193 196 180 155 160 173 173 174 182 185 186 186 184 187 189 188 189 187 185 190 188 183 185 184 182 180 180 180 179 177 173 177 181 183 186 187
211 234 221 212 201 232 194 226 222 211 243 280 274 272 211 251 256 245 216 255 256 224 199 230 233 269 166 163 157 139 136 150 169 162 171 173 182 185 182 184 180 185 186 188 189 190 190 187 182 187 188 188 181 180 174 172 172 175 177 184 192 190 191
148 172 221 211 210 222 242 251 324 216 193 220 213 256 254 247 245 263 234 260 273 262 233 209 217 263 117 147 141 150 149 161 151 148 153 160 172 176 179 184 176 182 185 188 191 193 193 187 186 190 191 186 171 172 176 173 157 156 177 187 195 195 190
146 193 202 207 183 197 238 257 232 215 262 238 228 226 262 271 269 256 237 236 263 240 237 255 290 348 323 125 153 156 151 151 145 133 142 152 164 168 174 180 178 181 185 189 190 191 191 185 187 191 187 178 173 176 177 164 156 172 175 181 185 190 187
176 209 190 223 195 188 197 211 232 205 226 308 296 237 246 246 263 268 279 253 236 180 68 301 317 9 337 166 150 147 149 124 118 118 119 136 152 160 170 173 173 183 186 192 191 189 188 183 185 185 180 181 180 179 181 172 173 177 176 178 181 183 182
211 225 178 222 223 214 205 209 222 221 220 213 224 244 214 244 249 245 251 257 269 107 141 265 321 110 160 83 144 143 141 121 102 104 107 120 135 148 162 166 172 181 177 187 185 181 178 178 180 181 179 181 182 186 185 179 179 174 175 181 185 185 187
219 227 127 71 334 330 296 250 224 215 227 230 229 241 226 223 239 270 263 284 250 95 209 144 91 101 102 113 139 132 120 117 116 113 110 110 122 139 151 154 156 163 168 181 175 172 173 178 174 177 177 182 186 186 182 181 181 179 182 184 179 180 180
261 238 170 208 278 294 261 233 268 264 234 223 236 236 251 255 217 224 226 241 234 106 46 44 94 98 121 126 121 129 128 115 117 111 110 117 120 121 129 125 134 147 149 152 145 157 166 175 175 179 180 181 187 187 186 184 187 177 181 174 171 176 176
215 231 217 226 202 239 240 243 216 227 245 247 244 256 246 254 230 240 246 237 204 101 193 98 122 137 143 141 135 139 129 133 127 117 110 111 118 124 126 130 133 142 153 158 159 166 169 176 177 180 180 181 187 189 186 186 183 184 188 180 174 172 171
210 206 200 204 199 210 215 228 232 219 227 228 230 225 213 238 239 250 255 246 228 155 127 142 142 137 137 143 139 138 131 133 131 127 123 123 119 117 117 124 132 142 146 153 163 168 172 175 177 178 179 182 186 187 186 182 184 190 191 180 172 164 170
271 260 308 356 244 191 211 202 224 231 226 236 231 235 231 230 223 231 231 245 248 214 119 72 136 152 156 152 153 143 138 129 125 119 119 119 117 121 121 121 121 124 139 144 150 155 164 168 171 171 173 176 180 181 183 183 187 187 183 177 167 165 172
261 271 277 284 307 256 205 197 200 213 225 224 229 222 228 222 240 234 222 223 234 233 208 151 140 139 163 163 156 147 136 137 132 121 115 118 119 116 119 120 124 126 129 135 145 150 153 158 160 161 170 171 175 181 180 184 186 194 197 180 170 173 189
269 266 271 272 257 257 264 258 269 240 211 215 219 223 225 205 226 237 217 209 217 235 255 83 98 87 185 169 162 149 136 130 126 127 127 127 128 127 120 117 118 129 133 139 143 146 148 151 156 156 160 165 169 176 184 190 190 198 194 193 187 183 192
282 257 246 242 240 242 244 243 242 249 232 212 217 220 219 210 222 233 239 202 213 231 260 313 32 326 194 154 141 138 142 141 139 132 131 131 129 128 124 123 125 128 135 140 143 143 146 152 151 154 159 163 166 174 179 180 189 194 187 188 188 182 182
281 234 224 223 233 229 233 231 233 234 242 238 222 224 220 218 230 233 246 245 245 110 76 92 96 214 150 141 156 154 145 148 146 137 133 132 130 123 121 128 132 136 140 140 140 142 144 146 146 144 150 156 161 160 161 167 177 175 181 189 195 180 183
270 251 228 231 216 217 222 213 218 224 230 234 220 214 208 218 219 228 233 238 227 102 118 137 170 174 172 162 159 153 153 157 146 138 134 132 131 130 132 137 141 145 144 141 139 136 133 131 132 136 135 139 146 149 149 145 153 161 182 193 193 190 178
269 300 311 223 208 195 203 181 96 316 245 248 245 216 221 241 274 238 228 213 40 12 8 175 159 182 170 162 167 154 155 155 147 138 135 134 135 138 144 147 150 144 135 128 124 120 120 121 121 122 124 133 135 132 138 138 147 160 173 182 178 184 181
265 245 298 283 206 193 164 46 38 12 352 214 224 194 196 190 242 254 336 334 347 349 336 340 87 181 177 163 153 155 153 151 137 131 131 133 138 145 149 146 136 125 121 121 112 105 105 112 115 116 119 126 130 134 138 144 149 156 158 160 172 177 181
252 295 288 253 201 173 106 104 68 15 36 44 107 106 75 50 21 291 270 283 336 344 337 328 352 22 126 143 139 142 150 141 130 128 131 138 146 146 144 138 129 120 116 110 106 102 104 112 120 125 125 125 128 133 142 148 153 156 162 155 163 155 161
263 264 259 225 121 108 119 85 51 14 221 51 190 106 74 53 28 11 322 344 346 342 341 346 333 140 135 132 121 106 130 142 136 137 140 147 151 148 141 132 123 127 124 121 119 112 115 122 125 132 126 125 131 132 138 143 146 148 138 143 146 150 98
241 235 238 143 169 170 101 107 23 356 349 326 321 158 83 42 37 22 4 354 356 351 350 338 95 158 160 140 119 123 135 141 141 140 144 150 147 137 132 130 129 124 125 125 119 124 124 119 123 124 122 124 126 133 134 129 128 122 119 102 81 106 124
169 253 286 177 174 158 90 30 348 342 314 298 256 245 107 40 34 17 9 3 358 353 345 337 172 184 179 156 143 145 145 134 133 136 136 137 133 134 126 121 122 126 123 121 126 127 123 121 120 120 119 122 129 131 129 124 122 122 129 129 145 146 161
241 225 251 146 170 129 30 357 356 350 347 264 201 234 113 42 15 10 2 3 1 357 343 336 189 205 161 148 143 153 151 142 138 135 136 135 133 128 129 131 130 126 127 124 123 124 125 118 124 126 123 130 132 131 131 132 136 139 147 145 154 162 166
251 223 225 213 92 159 8 352 345 346 355 258 229 206 141 22 358 358 356 0 359 353 338 302 211 253 146 141 165 160 151 147 144 142 139 135 134 135 132 128 122 117 118 126 129 124 119 119 129 127 135 137 131 134 137 140 145 140 139 141 143 142 140
212 191 209 291 162 69 3 344 327 338 339 287 241 164 21 343 339 350 350 359 3 355 340 285 176 89 18 336 210 149 149 144 140 136 132 132 133 132 129 121 125 129 135 130 123 124 125 129 129 135 133 129 131 128 133 139 134 130 127 126 130 137 143
239 262 227 220 100 33 343 339 354 343 291 215 73 4 331 323 335 343 354 358 6 358 358 320 334 8 17 8 200 148 145 138 133 134 133 132 130 122 118 128 134 131 126 123 125 121 128 135 135 139 139 128 129 139 146 133 124 126 132 132 127 128 132
248 213 250 215 221 49 3 341 360 14 23 15 324 317 318 332 337 343 353 355 3 351 344 347 348 343 21 49 182 155 139 133 134 133 133 131 130 129 131 136 132 131 131 134 128 131 139 139 141 145 137 135 139 147 128 116 121 125 126 128 132 133 132
242 223 223 224 22 342 8 16 37 27 24 330 331 328 325 338 343 350 339 354 352 344 343 327 334 359 25 29 201 160 141 134 133 131 131 130 131 138 139 135 138 137 130 124 124 127 125 129 139 138 135 135 138 129 115 114 116 119 121 125 129 126 125
305 350 8 344 340 355 24 32 45 29 13 2 348 343 332 335 345 342 334 346 345 345 336 325 324 333 16 35 204 176 152 142 140 138 138 140 142 141 140 137 137 137 132 130 129 130 129 131 125 121 125 121 120 112 108 116 114 110 113 121 124 124 120
298 210 333 14 298 0 26 50 34 17 10 2 0 355 345 340 337 337 334 333 338 338 339 328 329 332 342 29 153 150 168 143 139 136 138 141 140 140 136 135 135 127 128 130 130 128 129 126 122 124 122 121 115 111 119 117 116 114 117 111 110 116 121
288 214 218 358 6 314 359 30 40 30 10 1 355 352 344 340 340 339 340 336 322 333 331 319 320 317 305 149 105 126 150 138 138 140 139 141 143 143 141 131 130 134 136 133 131 129 127 127 120 113 105 105 107 116 121 118 112 108 106 110 109 105 107
270 98 31 351 322 190 220 9 13 9 7 2 353 340 340 345 344 348 345 340 331 338 331 335 320 312 316 113 143 146 145 144 139 137 137 138 137 131 126 131 137 134 133 130 129 121 114 111 109 103 97 96 97 96 105 107 107 103 85 74 91 94 105
279 189 327 342 308 142 178 25 20 16 8 356 347 343 344 351 355 360 354 354 340 337 342 339 324 314 344 351 162 158 150 144 140 136 132 129 127 129 132 135 135 129 127 121 118 115 112 109 104 96 84 80 91 96 91 89 92 91 91 90 69 77 79
331 25 345 352 316 263 300 345 1 5 8 353 348 345 346 358 4 5 353 345 345 338 355 346 348 345 0 74 160 153 148 146 135 132 129 131 133 133 132 133 127 121 120 119 114 109 108 107 104 101 97 91 80 82 88 93 91 92 90 82 82 61 43
314 329 324 329 306 291 314 331 340 354 3 345 345 351 348 355 7 7 356 345 338 345 2 6 4 39 40 76 118 133 134 135 139 134 135 134 134 134 134 129 126 124 120 116 116 116 115 115 110 106 103 100 101 97 93 90 88 90 85 85 68 78 69
276 279 290 313 307 305 318 322 331 345 2 343 333 340 348 356 5 11 359 347 334 335 354 24 21 32 69 86 107 114 114 130 128 130 130 131 130 130 128 125 123 122 122 122 119 117 115 111 104 101 95 89 87 93 84 81 81 77 67 60 47 30 25
241 282 307 309 304 297 300 307 319 351 352 336 332 339 353 353 6 10 360 350 340 339 351 23 31 31 56 84 108 117 110 109 112 116 120 122 125 125 123 120 121 124 118 113 115 118 119 117 112 103 92 79 70 66 64 58 51 62 47 41 18 22 26